Regional Weather Roundup
Issued by NWS

Home | Current Version | Previous Version | Text Only | Print | Product List | Glossary Off
Versions: 1 2 3 4 5 6 7 8 9 10 11 12 13 14 15 16 17 18 19 20 21 22 23 24 25 26 27 28 29 30 31 32 33 34 35 36 37 38 39 40 41 42 43 44 45 46 47 48 49 50

000
ASUS43 KIND 272159
RWRIN

WEATHER ROUNDUP FOR INDIANA
NATIONAL WEATHER SERVICE INDIANAPOLIS IN
600 PM EDT WED AUG 27 2014

NOTE: "FAIR" INDICATES FEW OR NO CLOUDS BELOW 12,000 FEET WITH NO
SIGNIFICANT WEATHER AND/OR OBSTRUCTIONS TO VISIBILITY.

* - STATION DOES NOT REPORT WEATHER SUCH AS PRECIPITATION OR FOG.

+ - STATION NOT QUALITY CONTROLLED BY THE NATIONAL WEATHER SERVICE.
    USE DATA WITH CAUTION...ESPECIALLY DEWPOINT AND RELATIVE
    HUMIDITY OBSERVATIONS.

INZ001>003-010>013-019-020-272300-
NORTHWEST INDIANA

CITY           SKY/WX    TMP DP  RH WIND       PRES   REMARKS
GARY /AIRPORT/ PTSUNNY   73  63  68 NE9       30.14F
KNOX *+        MOSUNNY   77  64  63 N13       30.11S
MONTICELLO +   MOSUNNY   80  68  67 NW14G21   30.08F
VALPARAISO     PTSUNNY   72  61  68 N7        30.13F

$$

LMZ046-743>745-272300-
SOUTHERN LAKE MICHIGAN

STATION/POSITION TIME  TEMP WIND        PRES
                       AIR  DIR/SP/G
                 (UTC) (F)  (DEG/KT/KT) (MB)
MICHIGAN CITY    2100   69  360/ 15/ 17   N/A

$$

INZ004-005-014>016-021>024-272300-
NORTH CENTRAL INDIANA

CITY           SKY/WX    TMP DP  RH WIND       PRES   REMARKS
ELKHART        MOSUNNY   77  59  53 N8        30.12S
GOSHEN         MOSUNNY   77  58  51 N9        30.11R
SOUTH BEND     MOSUNNY   75  58  55 N13       30.13S

$$

INZ006>009-017-018-025>027-272300-
NORTHEAST INDIANA

CITY           SKY/WX    TMP DP  RH WIND       PRES   REMARKS
ANGOLA *+      SUNNY     79  61  53 N7        30.10S
FORT WAYNE     PTSUNNY   81  60  48 NW7       30.08F

$$

INZ028-029-035-036-043>045-051>053-272300-
WEST CENTRAL INDIANA

CITY           SKY/WX    TMP DP  RH WIND       PRES   REMARKS
GREENCASTLE +  MOSUNNY   84  72  65 N8        30.06F
LAFAYETTE      PTSUNNY   81  69  67 N9        30.07F
TERRE HAUTE    MOSUNNY   85  74  69 N6        30.05F

$$

INZ030>032-037>040-046>048-054>057-064-065-272300-
CENTRAL INDIANA

CITY           SKY/WX    TMP DP  RH WIND       PRES   REMARKS
COLUMBUS       SUNNY     86  72  62 NW6       30.04F
FRANKFORT +    MOSUNNY   82  71  68 N10       30.09F
INDIANAPOLIS   PTSUNNY   86  71  60 N10       30.05F
-EAGLE CREEK   MOSUNNY   85  70  60 N10       30.05F
KOKOMO *+      SUNNY     82  68  61 N12       30.08S
MT COMFORT *+  MOSUNNY   84  70  61 N10       30.07S
SHELBYVILLE    MOSUNNY   85  73  67 N8        30.04F

$$

INZ033-034-041-042-049-050-058-059-272300-
EAST CENTRAL INDIANA

CITY           SKY/WX    TMP DP  RH WIND       PRES   REMARKS
MUNCIE         MOSUNNY   84  69  60 NW8       30.07S

$$

INZ060-061-067>069-081>083-085>088-272300-
SOUTHWEST INDIANA

CITY           SKY/WX    TMP DP  RH WIND       PRES   REMARKS
EVANSVILLE     MOSUNNY   94  71  47 NE6       30.02F HX 101

$$

INZ062-063-066-070>080-084-089>092-272300-
SOUTH CENTRAL AND SOUTHEAST INDIANA

CITY           SKY/WX    TMP DP  RH WIND       PRES   REMARKS
BLOOMINGTON    MOSUNNY   87  74  64 N6        30.05F HX  95

$$




USA.gov is the U.S. government's official web portal to all federal, state and local government web resources and services.